Time,TemperatureF,DewpointF,PressureIn,WindDirection,WindDirectionDegrees,WindSpeedMPH,WindSpeedGustMPH,Humidity,HourlyPrecipIn,Conditions,Clouds,dailyrainin,SoftwareType,DateUTC
2013-02-03 00:01:00,31.9,31.1,29.87,SSW,202,0.0,0.0,97,0.00,,,0.02,Wunderground v.1.15,2013-02-03 05:01:00,
2013-02-03 00:10:00,32.0,31.2,29.87,SW,216,2.0,2.0,97,0.00,,,0.00,Wunderground v.1.15,2013-02-03 05:10:00,
2013-02-03 00:16:00,31.8,30.8,29.87,SW,228,1.0,5.0,96,0.00,,,0.00,Wunderground v.1.15,2013-02-03 05:16:00,
2013-02-03 00:25:00,32.3,31.5,29.87,WSW,237,2.0,3.0,97,0.00,,,0.00,Wunderground v.1.15,2013-02-03 05:25:00,
2013-02-03 00:31:00,31.9,31.1,29.87,SSW,210,2.0,5.0,97,0.00,,,0.00,Wunderground v.1.15,2013-02-03 05:31:00,
2013-02-03 00:35:00,32.4,31.6,29.87,SW,234,2.0,5.0,97,0.00,,,0.00,Wunderground v.1.15,2013-02-03 05:35:00,
2013-02-03 00:40:00,32.7,31.9,29.87,SW,217,3.0,3.0,97,0.00,,,0.00,Wunderground v.1.15,2013-02-03 05:40:00,
2013-02-03 00:45:00,32.7,31.9,29.87,WSW,242,4.0,4.0,97,0.00,,,0.00,Wunderground v.1.15,2013-02-03 05:45:00,
2013-02-03 00:55:00,32.9,32.1,29.87,WSW,245,3.0,4.0,97,0.00,,,0.00,Wunderground v.1.15,2013-02-03 05:55:00,
2013-02-03 01:01:00,33.1,32.3,29.86,WSW,247,3.0,4.0,97,0.00,,,0.00,Wunderground v.1.15,2013-02-03 06:01:00,
2013-02-03 01:11:00,33.4,32.4,29.88,WNW,295,5.0,11.0,96,0.00,,,0.00,Wunderground v.1.15,2013-02-03 06:11:00,
2013-02-03 01:20:00,33.9,32.4,29.87,WNW,286,5.0,8.0,94,0.00,,,0.00,Wunderground v.1.15,2013-02-03 06:20:00,
2013-02-03 01:25:00,34.1,32.0,29.87,WNW,282,5.0,8.0,92,0.00,,,0.00,Wunderground v.1.15,2013-02-03 06:25:00,
2013-02-03 01:31:00,34.2,31.3,29.86,NW,305,4.0,4.0,89,0.00,,,0.00,Wunderground v.1.15,2013-02-03 06:31:00,
2013-02-03 01:41:00,34.0,30.3,29.86,West,278,3.0,5.0,86,0.00,,,0.00,Wunderground v.1.15,2013-02-03 06:41:00,
2013-02-03 01:50:00,33.8,29.8,29.86,West,264,3.0,5.0,85,0.00,,,0.00,Wunderground v.1.15,2013-02-03 06:50:00,
2013-02-03 01:55:00,33.8,29.5,29.86,West,268,4.0,5.0,84,0.00,,,0.00,Wunderground v.1.15,2013-02-03 06:55:00,
2013-02-03 02:01:00,33.9,29.3,29.86,West,262,5.0,6.0,83,0.00,,,0.00,Wunderground v.1.15,2013-02-03 07:01:00,
2013-02-03 02:11:00,33.9,29.3,29.86,West,275,5.0,5.0,83,0.00,,,0.00,Wunderground v.1.15,2013-02-03 07:11:00,
2013-02-03 02:16:00,33.8,28.9,29.86,West,263,4.0,5.0,82,0.00,,,0.00,Wunderground v.1.15,2013-02-03 07:16:00,
2013-02-03 02:25:00,33.8,28.9,29.86,West,275,5.0,5.0,82,0.00,,,0.00,Wunderground v.1.15,2013-02-03 07:25:00,
2013-02-03 02:31:00,34.0,28.5,29.86,West,271,5.0,5.0,80,0.00,,,0.00,Wunderground v.1.15,2013-02-03 07:31:00,
2013-02-03 02:36:00,34.2,28.7,29.86,West,270,6.0,6.0,80,0.00,,,0.00,Wunderground v.1.15,2013-02-03 07:36:00,
2013-02-03 02:45:00,34.4,28.2,29.86,West,260,5.0,5.0,78,0.00,,,0.00,Wunderground v.1.15,2013-02-03 07:45:00,
2013-02-03 02:55:00,34.3,28.5,29.85,WSW,245,4.0,5.0,79,0.00,,,0.00,Wunderground v.1.15,2013-02-03 07:55:00,
2013-02-03 03:01:00,34.3,28.2,29.85,West,262,4.0,5.0,78,0.00,,,0.00,Wunderground v.1.15,2013-02-03 08:01:00,
2013-02-03 03:10:00,34.1,28.3,29.84,NW,316,5.0,6.0,79,0.00,,,0.00,Wunderground v.1.15,2013-02-03 08:10:00,
2013-02-03 03:16:00,34.0,28.2,29.85,WSW,251,5.0,6.0,79,0.00,,,0.00,Wunderground v.1.15,2013-02-03 08:16:00,
2013-02-03 03:25:00,34.0,28.2,29.85,WSW,255,6.0,10.0,79,0.00,,,0.00,Wunderground v.1.15,2013-02-03 08:25:00,
2013-02-03 03:30:00,33.9,28.1,29.84,WSW,241,6.0,6.0,79,0.00,,,0.00,Wunderground v.1.15,2013-02-03 08:30:00,
2013-02-03 03:35:00,33.8,28.3,29.84,WSW,254,6.0,6.0,80,0.00,,,0.00,Wunderground v.1.15,2013-02-03 08:35:00,
2013-02-03 03:46:00,33.4,28.2,29.85,WSW,241,5.0,7.0,81,0.00,,,0.00,Wunderground v.1.15,2013-02-03 08:46:00,
2013-02-03 03:55:00,33.4,27.9,29.84,WNW,287,7.0,7.0,80,0.00,,,0.00,Wunderground v.1.15,2013-02-03 08:55:00,
2013-02-03 04:01:00,33.2,27.7,29.84,West,259,6.0,6.0,80,0.00,,,0.00,Wunderground v.1.15,2013-02-03 09:01:00,
2013-02-03 04:06:00,33.0,27.8,29.84,SW,230,5.0,7.0,81,0.00,,,0.00,Wunderground v.1.15,2013-02-03 09:06:00,
2013-02-03 04:16:00,33.2,27.7,29.84,WSW,255,6.0,7.0,80,0.00,,,0.00,Wunderground v.1.15,2013-02-03 09:16:00,
2013-02-03 04:26:00,33.1,27.6,29.84,WSW,246,6.0,7.0,80,0.00,,,0.00,Wunderground v.1.15,2013-02-03 09:26:00,
2013-02-03 04:31:00,33.1,27.6,29.84,WNW,282,6.0,7.0,80,0.00,,,0.00,Wunderground v.1.15,2013-02-03 09:31:00,
2013-02-03 04:40:00,32.9,27.4,29.84,WSW,249,6.0,7.0,80,0.00,,,0.00,Wunderground v.1.15,2013-02-03 09:40:00,
2013-02-03 04:46:00,32.6,27.7,29.84,WSW,239,6.0,7.0,82,0.00,,,0.00,Wunderground v.1.15,2013-02-03 09:46:00,
2013-02-03 04:55:00,32.1,27.2,29.84,WSW,249,4.0,5.0,82,0.00,,,0.00,Wunderground v.1.15,2013-02-03 09:55:00,
2013-02-03 05:01:00,32.4,27.5,29.84,WSW,237,5.0,5.0,82,0.00,,,0.00,Wunderground v.1.15,2013-02-03 10:01:00,
2013-02-03 05:06:00,31.8,27.2,29.84,WSW,237,5.0,6.0,83,0.00,,,0.00,Wunderground v.1.15,2013-02-03 10:06:00,
2013-02-03 05:15:00,31.0,27.3,29.84,SW,219,5.0,10.0,86,0.00,,,0.00,Wunderground v.1.15,2013-02-03 10:15:00,
2013-02-03 05:25:00,30.8,27.1,29.84,WSW,237,5.0,7.0,86,0.00,,,0.00,Wunderground v.1.15,2013-02-03 10:25:00,
2013-02-03 05:31:00,30.4,27.0,29.84,SW,216,5.0,5.0,87,0.00,,,0.00,Wunderground v.1.15,2013-02-03 10:31:00,
2013-02-03 05:36:00,30.5,27.4,29.84,SW,219,5.0,5.0,88,0.00,,,0.00,Wunderground v.1.15,2013-02-03 10:36:00,
2013-02-03 05:46:00,30.6,27.2,29.85,SW,226,5.0,5.0,87,0.00,,,0.00,Wunderground v.1.15,2013-02-03 10:46:00,
2013-02-03 05:56:00,30.5,27.1,29.85,SW,231,6.0,6.0,87,0.00,,,0.00,Wunderground v.1.15,2013-02-03 10:56:00,
2013-02-03 06:01:00,30.0,26.6,29.85,SW,226,6.0,6.0,87,0.00,,,0.00,Wunderground v.1.15,2013-02-03 11:01:00,
2013-02-03 06:10:00,29.3,26.2,29.85,WSW,251,4.0,4.0,88,0.00,,,0.00,Wunderground v.1.15,2013-02-03 11:10:00,
2013-02-03 06:16:00,29.6,26.8,29.84,SW,235,3.0,4.0,89,0.00,,,0.00,Wunderground v.1.15,2013-02-03 11:16:00,
2013-02-03 06:26:00,30.1,27.3,29.84,WSW,237,3.0,3.0,89,0.00,,,0.00,Wunderground v.1.15,2013-02-03 11:26:00,
2013-02-03 06:35:00,29.9,27.1,29.84,SW,233,2.0,3.0,89,0.00,,,0.00,Wunderground v.1.15,2013-02-03 11:35:00,
2013-02-03 06:40:00,29.5,26.7,29.84,SW,232,2.0,2.0,89,0.00,,,0.00,Wunderground v.1.15,2013-02-03 11:40:00,
2013-02-03 06:46:00,28.6,25.8,29.83,SW,232,1.0,2.0,89,0.00,,,0.00,Wunderground v.1.15,2013-02-03 11:46:00,
2013-02-03 06:56:00,28.0,25.4,29.84,SW,232,1.0,3.0,90,0.00,,,0.00,Wunderground v.1.15,2013-02-03 11:56:00,
2013-02-03 07:01:00,28.0,25.7,29.84,SW,232,3.0,3.0,91,0.00,,,0.00,Wunderground v.1.15,2013-02-03 12:01:00,
2013-02-03 07:10:00,27.5,25.2,29.84,SW,232,3.0,3.0,91,0.00,,,0.00,Wunderground v.1.15,2013-02-03 12:10:00,
2013-02-03 07:16:00,27.8,25.8,29.84,SW,232,3.0,3.0,92,0.00,,,0.00,Wunderground v.1.15,2013-02-03 12:16:00,
2013-02-03 07:25:00,27.7,25.7,29.84,SW,232,1.0,2.0,92,0.00,,,0.00,Wunderground v.1.15,2013-02-03 12:25:00,
2013-02-03 07:30:00,27.9,26.1,29.84,SW,232,0.0,0.0,93,0.00,,,0.00,Wunderground v.1.15,2013-02-03 12:30:00,
2013-02-03 07:40:00,27.9,26.1,29.84,SW,231,1.0,3.0,93,0.00,,,0.00,Wunderground v.1.15,2013-02-03 12:40:00,
2013-02-03 07:46:00,28.0,26.2,29.84,SW,228,1.0,3.0,93,0.00,,,0.00,Wunderground v.1.15,2013-02-03 12:46:00,
2013-02-03 07:55:00,28.4,26.9,29.84,SW,229,3.0,5.0,94,0.00,,,0.00,Wunderground v.1.15,2013-02-03 12:55:00,
2013-02-03 08:01:00,28.6,27.1,29.84,SW,234,4.0,5.0,94,0.00,,,0.00,Wunderground v.1.15,2013-02-03 13:01:00,
2013-02-03 08:11:00,29.4,27.9,29.85,WSW,237,5.0,5.0,94,0.00,,,0.00,Wunderground v.1.15,2013-02-03 13:11:00,
2013-02-03 08:16:00,29.7,28.2,29.85,SW,232,5.0,6.0,94,0.00,,,0.00,Wunderground v.1.15,2013-02-03 13:16:00,
2013-02-03 08:25:00,30.2,28.9,29.85,WSW,239,5.0,6.0,95,0.00,,,0.00,Wunderground v.1.15,2013-02-03 13:25:00,
2013-02-03 08:31:00,30.7,29.4,29.84,SW,236,5.0,6.0,95,0.00,,,0.00,Wunderground v.1.15,2013-02-03 13:31:00,
2013-02-03 08:36:00,30.8,29.5,29.85,WSW,240,5.0,6.0,95,0.00,,,0.00,Wunderground v.1.15,2013-02-03 13:36:00,
2013-02-03 08:46:00,30.8,29.5,29.84,SW,235,5.0,7.0,95,0.00,,,0.00,Wunderground v.1.15,2013-02-03 13:46:00,
2013-02-03 08:55:00,31.4,30.1,29.84,SW,234,6.0,6.0,95,0.00,,,0.00,Wunderground v.1.15,2013-02-03 13:55:00,
2013-02-03 09:01:00,31.6,30.3,29.84,SW,232,6.0,6.0,95,0.00,,,0.00,Wunderground v.1.15,2013-02-03 14:01:00,
2013-02-03 09:06:00,31.9,30.6,29.84,SW,228,7.0,9.0,95,0.00,,,0.00,Wunderground v.1.15,2013-02-03 14:06:00,
2013-02-03 09:11:00,32.0,30.5,29.83,SW,236,8.0,8.0,94,0.00,,,0.00,Wunderground v.1.15,2013-02-03 14:11:00,
2013-02-03 09:20:00,32.5,31.0,29.83,WSW,237,8.0,10.0,94,0.00,,,0.00,Wunderground v.1.15,2013-02-03 14:20:00,
2013-02-03 09:25:00,32.7,30.9,29.83,SW,232,8.0,10.0,93,0.00,,,0.00,Wunderground v.1.15,2013-02-03 14:25:00,
2013-02-03 09:31:00,33.0,31.2,29.83,WSW,238,8.0,8.0,93,0.00,,,0.00,Wunderground v.1.15,2013-02-03 14:31:00,
2013-02-03 09:36:00,33.3,31.2,29.83,SW,234,8.0,8.0,92,0.00,,,0.00,Wunderground v.1.15,2013-02-03 14:36:00,
2013-02-03 09:46:00,33.9,31.6,29.83,SW,234,7.0,8.0,91,0.00,,,0.01,Wunderground v.1.15,2013-02-03 14:46:00,
2013-02-03 09:56:00,34.8,31.9,29.83,SW,227,6.0,9.0,89,0.00,,,0.01,Wunderground v.1.15,2013-02-03 14:56:00,
2013-02-03 10:05:00,35.7,32.5,29.82,SW,234,5.0,8.0,88,0.00,,,0.01,Wunderground v.1.15,2013-02-03 15:05:00,
2013-02-03 10:11:00,35.9,32.7,29.82,SW,236,4.0,4.0,88,0.00,,,0.01,Wunderground v.1.15,2013-02-03 15:11:00,
2013-02-03 10:16:00,36.1,32.6,29.82,SW,231,4.0,11.0,87,0.00,,,0.01,Wunderground v.1.15,2013-02-03 15:16:00,
2013-02-03 10:25:00,37.0,32.9,29.82,WSW,240,5.0,6.0,85,0.00,,,0.01,Wunderground v.1.15,2013-02-03 15:25:00,
2013-02-03 10:31:00,37.4,33.3,29.82,SW,229,5.0,7.0,85,0.00,,,0.02,Wunderground v.1.15,2013-02-03 15:31:00,
2013-02-03 10:36:00,37.8,33.4,29.82,WSW,239,5.0,11.0,84,0.11,,,0.03,Wunderground v.1.15,2013-02-03 15:36:00,
2013-02-03 10:45:00,38.7,33.7,29.82,SW,229,8.0,15.0,82,0.11,,,0.04,Wunderground v.1.15,2013-02-03 15:45:00,
2013-02-03 10:50:00,39.1,34.1,29.81,SW,219,9.0,9.0,82,0.11,,,0.05,Wunderground v.1.15,2013-02-03 15:50:00,
2013-02-03 10:55:00,39.3,34.3,29.81,SW,232,10.0,10.0,82,0.13,,,0.07,Wunderground v.1.15,2013-02-03 15:55:00,
2013-02-03 11:01:00,39.8,34.1,29.80,SW,235,10.0,16.0,80,0.13,,,0.08,Wunderground v.1.15,2013-02-03 16:01:00,
2013-02-03 11:06:00,40.0,34.3,29.80,WSW,239,10.0,16.0,80,0.14,,,0.09,Wunderground v.1.15,2013-02-03 16:06:00,
2013-02-03 11:15:00,40.5,34.2,29.80,WSW,250,10.0,12.0,78,0.14,,,0.11,Wunderground v.1.15,2013-02-03 16:15:00,
2013-02-03 11:20:00,40.8,34.5,29.80,WSW,251,11.0,11.0,78,0.15,,,0.12,Wunderground v.1.15,2013-02-03 16:20:00,
2013-02-03 11:26:00,40.9,34.6,29.80,WSW,247,12.0,12.0,78,0.14,,,0.13,Wunderground v.1.15,2013-02-03 16:26:00,
2013-02-03 11:35:00,41.0,34.0,29.80,WNW,298,10.0,15.0,76,0.13,,,0.16,Wunderground v.1.15,2013-02-03 16:35:00,
2013-02-03 11:45:00,41.1,33.8,29.80,WSW,238,8.0,10.0,75,0.12,,,0.18,Wunderground v.1.15,2013-02-03 16:45:00,
2013-02-03 11:56:00,41.5,34.2,29.80,WSW,241,11.0,11.0,75,0.12,,,0.20,Wunderground v.1.15,2013-02-03 16:56:00,
2013-02-03 12:01:00,41.7,34.0,29.79,SW,229,12.0,14.0,74,0.11,,,0.20,Wunderground v.1.15,2013-02-03 17:01:00,
2013-02-03 12:10:00,41.5,33.8,29.79,WNW,283,11.0,11.0,74,0.10,,,0.22,Wunderground v.1.15,2013-02-03 17:10:00,
2013-02-03 12:16:00,41.7,34.0,29.79,West,276,9.0,11.0,74,0.08,,,0.22,Wunderground v.1.15,2013-02-03 17:16:00,
2013-02-03 12:21:00,41.5,33.8,29.79,WSW,241,9.0,12.0,74,0.07,,,0.23,Wunderground v.1.15,2013-02-03 17:21:00,
2013-02-03 12:26:00,41.7,34.0,29.79,West,273,10.0,12.0,74,0.08,,,0.24,Wunderground v.1.15,2013-02-03 17:26:00,
2013-02-03 12:35:00,41.6,33.6,29.78,West,270,12.0,17.0,73,0.06,,,0.25,Wunderground v.1.15,2013-02-03 17:35:00,
2013-02-03 12:46:00,42.2,33.5,29.77,SW,235,11.0,18.0,71,0.05,,,0.25,Wunderground v.1.15,2013-02-03 17:46:00,
2013-02-03 12:56:00,43.1,33.3,29.76,WSW,237,10.0,10.0,68,0.05,,,0.26,Wunderground v.1.15,2013-02-03 17:56:00,
2013-02-03 13:01:00,43.5,33.3,29.75,West,274,10.0,18.0,67,0.04,,,0.26,Wunderground v.1.15,2013-02-03 18:01:00,
2013-02-03 13:10:00,44.0,33.0,29.75,NW,305,8.0,8.0,65,0.00,,,0.27,Wunderground v.1.15,2013-02-03 18:10:00,
2013-02-03 13:16:00,44.2,33.2,29.75,WSW,251,10.0,14.0,65,0.00,,,0.27,Wunderground v.1.15,2013-02-03 18:16:00,
2013-02-03 13:21:00,44.2,32.8,29.75,WNW,291,12.0,18.0,64,0.00,,,0.27,Wunderground v.1.15,2013-02-03 18:21:00,
2013-02-03 13:31:00,44.3,32.5,29.75,WSW,255,13.0,15.0,63,0.00,,,0.27,Wunderground v.1.15,2013-02-03 18:31:00,
2013-02-03 13:41:00,44.4,31.8,29.74,SW,232,12.0,12.0,61,0.00,,,0.27,Wunderground v.1.15,2013-02-03 18:41:00,
2013-02-03 13:46:00,44.4,32.2,29.74,WSW,254,13.0,13.0,62,0.00,,,0.27,Wunderground v.1.15,2013-02-03 18:46:00,
2013-02-03 13:55:00,44.7,32.5,29.74,West,262,10.0,17.0,62,0.00,,,0.27,Wunderground v.1.15,2013-02-03 18:55:00,
2013-02-03 14:01:00,44.7,32.5,29.74,WSW,253,12.0,16.0,62,0.00,,,0.27,Wunderground v.1.15,2013-02-03 19:01:00,
2013-02-03 14:06:00,44.7,31.7,29.74,West,267,12.0,16.0,60,0.00,,,0.27,Wunderground v.1.15,2013-02-03 19:06:00,
2013-02-03 14:10:00,44.7,31.7,29.74,SW,228,12.0,18.0,60,0.00,,,0.27,Wunderground v.1.15,2013-02-03 19:10:00,
2013-02-03 14:16:00,45.0,32.8,29.74,WNW,282,13.0,18.0,62,0.00,,,0.27,Wunderground v.1.15,2013-02-03 19:16:00,
2013-02-03 14:26:00,45.2,32.9,29.74,West,260,10.0,15.0,62,0.00,,,0.27,Wunderground v.1.15,2013-02-03 19:26:00,
2013-02-03 14:35:00,45.4,32.3,29.74,WNW,288,11.0,12.0,60,0.00,,,0.27,Wunderground v.1.15,2013-02-03 19:35:00,
2013-02-03 14:40:00,45.4,32.3,29.74,West,278,11.0,11.0,60,0.00,,,0.27,Wunderground v.1.15,2013-02-03 19:40:00,
2013-02-03 14:46:00,45.2,32.9,29.74,WNW,282,11.0,11.0,62,0.00,,,0.27,Wunderground v.1.15,2013-02-03 19:46:00,
2013-02-03 14:55:00,45.6,32.9,29.74,NW,322,10.0,13.0,61,0.00,,,0.27,Wunderground v.1.15,2013-02-03 19:55:00,
2013-02-03 15:00:00,45.4,32.7,29.75,North,355,9.0,9.0,61,0.00,,,0.27,Wunderground v.1.15,2013-02-03 20:00:00,
2013-02-03 15:05:00,45.6,32.5,29.75,WNW,284,8.0,16.0,60,0.00,,,0.27,Wunderground v.1.15,2013-02-03 20:05:00,
2013-02-03 15:10:00,45.8,33.1,29.75,NW,313,7.0,7.0,61,0.00,,,0.27,Wunderground v.1.15,2013-02-03 20:10:00,
2013-02-03 15:16:00,46.1,32.6,29.75,WNW,293,7.0,7.0,59,0.00,,,0.27,Wunderground v.1.15,2013-02-03 20:16:00,
2013-02-03 15:26:00,46.0,32.0,29.75,NW,326,9.0,9.0,58,0.00,,,0.27,Wunderground v.1.15,2013-02-03 20:26:00,
2013-02-03 15:31:00,46.1,32.6,29.75,WNW,303,8.0,8.0,59,0.00,,,0.27,Wunderground v.1.15,2013-02-03 20:31:00,
2013-02-03 15:40:00,46.7,31.8,29.75,West,278,7.0,7.0,56,0.00,,,0.27,Wunderground v.1.15,2013-02-03 20:40:00,
2013-02-03 15:46:00,46.7,31.4,29.75,WNW,283,7.0,7.0,55,0.00,,,0.27,Wunderground v.1.15,2013-02-03 20:46:00,
2013-02-03 15:55:00,46.5,31.6,29.75,WNW,299,7.0,13.0,56,0.00,,,0.27,Wunderground v.1.15,2013-02-03 20:55:00,
2013-02-03 16:01:00,46.5,31.6,29.76,NW,309,7.0,7.0,56,0.00,,,0.27,Wunderground v.1.15,2013-02-03 21:01:00,
2013-02-03 16:06:00,46.4,31.5,29.76,West,278,8.0,8.0,56,0.00,,,0.27,Wunderground v.1.15,2013-02-03 21:06:00,
2013-02-03 16:15:00,46.4,30.6,29.76,WNW,287,9.0,17.0,54,0.00,,,0.27,Wunderground v.1.15,2013-02-03 21:15:00,
2013-02-03 16:25:00,46.5,30.3,29.76,West,272,9.0,12.0,53,0.00,,,0.27,Wunderground v.1.15,2013-02-03 21:25:00,
2013-02-03 16:31:00,46.5,29.8,29.76,NW,322,8.0,8.0,52,0.00,,,0.27,Wunderground v.1.15,2013-02-03 21:31:00,
2013-02-03 16:40:00,46.5,28.8,29.77,NW,326,6.0,6.0,50,0.00,,,0.27,Wunderground v.1.15,2013-02-03 21:40:00,
2013-02-03 16:45:00,46.5,28.8,29.77,NNW,327,6.0,8.0,50,0.00,,,0.27,Wunderground v.1.15,2013-02-03 21:45:00,
2013-02-03 16:55:00,46.2,29.5,29.77,West,259,4.0,10.0,52,0.00,,,0.27,Wunderground v.1.15,2013-02-03 21:55:00,
2013-02-03 17:00:00,46.1,29.0,29.77,NNW,334,5.0,5.0,51,0.00,,,0.27,Wunderground v.1.15,2013-02-03 22:00:00,
2013-02-03 17:05:00,45.9,28.3,29.78,NW,325,6.0,7.0,50,0.00,,,0.27,Wunderground v.1.15,2013-02-03 22:05:00,
2013-02-03 17:11:00,45.8,28.2,29.78,NW,312,5.0,5.0,50,0.00,,,0.27,Wunderground v.1.15,2013-02-03 22:11:00,
2013-02-03 17:20:00,45.4,27.8,29.79,NNW,330,6.0,6.0,50,0.00,,,0.27,Wunderground v.1.15,2013-02-03 22:20:00,
2013-02-03 17:25:00,45.3,27.7,29.79,West,277,6.0,6.0,50,0.00,,,0.27,Wunderground v.1.15,2013-02-03 22:25:00,
2013-02-03 17:31:00,45.0,27.9,29.79,WNW,303,6.0,6.0,51,0.00,,,0.27,Wunderground v.1.15,2013-02-03 22:31:00,
2013-02-03 17:40:00,44.9,27.4,29.79,West,280,6.0,13.0,50,0.00,,,0.27,Wunderground v.1.15,2013-02-03 22:40:00,
2013-02-03 17:46:00,44.8,27.3,29.79,WNW,299,9.0,13.0,50,0.00,,,0.27,Wunderground v.1.15,2013-02-03 22:46:00,
2013-02-03 17:51:00,44.6,27.6,29.79,West,273,8.0,8.0,51,0.00,,,0.27,Wunderground v.1.15,2013-02-03 22:51:00,
2013-02-03 17:56:00,44.3,27.8,29.79,WNW,286,5.0,8.0,52,0.00,,,0.27,Wunderground v.1.15,2013-02-03 22:56:00,
2013-02-03 18:05:00,43.8,27.3,29.80,NNW,331,4.0,14.0,52,0.00,,,0.27,Wunderground v.1.15,2013-02-03 23:05:00,
2013-02-03 18:10:00,43.6,27.6,29.80,WNW,297,4.0,7.0,53,0.00,,,0.27,Wunderground v.1.15,2013-02-03 23:10:00,
2013-02-03 18:16:00,43.5,27.0,29.80,WSW,242,6.0,7.0,52,0.00,,,0.27,Wunderground v.1.15,2013-02-03 23:16:00,
2013-02-03 18:26:00,43.3,26.8,29.81,West,272,4.0,5.0,52,0.00,,,0.27,Wunderground v.1.15,2013-02-03 23:26:00,
2013-02-03 18:35:00,43.2,27.2,29.81,West,280,5.0,7.0,53,0.00,,,0.27,Wunderground v.1.15,2013-02-03 23:35:00,
2013-02-03 18:40:00,43.0,27.0,29.82,West,276,4.0,4.0,53,0.00,,,0.27,Wunderground v.1.15,2013-02-03 23:40:00,
2013-02-03 18:46:00,42.9,26.9,29.81,West,274,5.0,6.0,53,0.00,,,0.27,Wunderground v.1.15,2013-02-03 23:46:00,
2013-02-03 18:56:00,42.6,27.1,29.82,WNW,289,6.0,6.0,54,0.00,,,0.27,Wunderground v.1.15,2013-02-03 23:56:00,
2013-02-03 19:05:00,42.3,26.8,29.82,NW,323,5.0,5.0,54,0.00,,,0.27,Wunderground v.1.15,2013-02-04 00:05:00,
2013-02-03 19:10:00,42.2,26.7,29.83,NW,309,4.0,6.0,54,0.00,,,0.27,Wunderground v.1.15,2013-02-04 00:10:00,
2013-02-03 19:16:00,42.1,26.6,29.83,WNW,286,4.0,6.0,54,0.00,,,0.27,Wunderground v.1.15,2013-02-04 00:16:00,
2013-02-03 19:26:00,41.6,26.6,29.83,NNW,332,4.0,5.0,55,0.00,,,0.27,Wunderground v.1.15,2013-02-04 00:26:00,
2013-02-03 19:35:00,41.4,27.3,29.83,NNE,27,7.0,9.0,57,0.00,,,0.27,Wunderground v.1.15,2013-02-04 00:35:00,
2013-02-03 19:40:00,41.4,27.3,29.84,WNW,302,8.0,11.0,57,0.00,,,0.27,Wunderground v.1.15,2013-02-04 00:40:00,
2013-02-03 19:46:00,41.1,27.0,29.84,North,351,7.0,11.0,57,0.00,,,0.27,Wunderground v.1.15,2013-02-04 00:46:00,
2013-02-03 19:56:00,41.1,27.0,29.84,NW,318,6.0,9.0,57,0.00,,,0.27,Wunderground v.1.15,2013-02-04 00:56:00,
2013-02-03 20:05:00,40.8,27.2,29.84,NW,307,6.0,6.0,58,0.00,,,0.27,Wunderground v.1.15,2013-02-04 01:05:00,
2013-02-03 20:10:00,40.5,26.9,29.84,NNW,343,6.0,6.0,58,0.00,,,0.27,Wunderground v.1.15,2013-02-04 01:10:00,
2013-02-03 20:16:00,40.2,26.6,29.84,NW,323,5.0,6.0,58,0.00,,,0.27,Wunderground v.1.15,2013-02-04 01:16:00,
2013-02-03 20:25:00,39.8,27.0,29.84,NNW,347,5.0,6.0,60,0.00,,,0.27,Wunderground v.1.15,2013-02-04 01:25:00,
2013-02-03 20:31:00,39.9,27.1,29.84,North,360,8.0,14.0,60,0.00,,,0.27,Wunderground v.1.15,2013-02-04 01:31:00,
2013-02-03 20:36:00,39.8,27.0,29.84,NNW,332,10.0,14.0,60,0.00,,,0.27,Wunderground v.1.15,2013-02-04 01:36:00,
2013-02-03 20:41:00,39.5,26.8,29.84,NW,324,9.0,13.0,60,0.00,,,0.27,Wunderground v.1.15,2013-02-04 01:41:00,
2013-02-03 20:50:00,38.9,26.6,29.84,North,360,8.0,10.0,61,0.00,,,0.27,Wunderground v.1.15,2013-02-04 01:50:00,
2013-02-03 20:55:00,38.7,26.4,29.84,North,360,10.0,13.0,61,0.00,,,0.27,Wunderground v.1.15,2013-02-04 01:55:00,
2013-02-03 21:01:00,38.4,26.5,29.83,NNW,335,10.0,16.0,62,0.00,,,0.27,Wunderground v.1.15,2013-02-04 02:01:00,
2013-02-03 21:05:00,38.2,26.7,29.83,NW,321,9.0,16.0,63,0.00,,,0.27,Wunderground v.1.15,2013-02-04 02:05:00,
2013-02-03 21:10:00,38.1,26.2,29.83,NW,320,9.0,9.0,62,0.00,,,0.27,Wunderground v.1.15,2013-02-04 02:10:00,
2013-02-03 21:16:00,37.9,26.4,29.84,North,350,8.0,9.0,63,0.00,,,0.27,Wunderground v.1.15,2013-02-04 02:16:00,
2013-02-03 21:25:00,37.5,26.0,29.83,North,354,7.0,8.0,63,0.00,,,0.27,Wunderground v.1.15,2013-02-04 02:25:00,
2013-02-03 21:30:00,37.5,26.0,29.83,North,349,7.0,10.0,63,0.00,,,0.27,Wunderground v.1.15,2013-02-04 02:30:00,
2013-02-03 21:35:00,37.3,26.2,29.83,North,360,8.0,10.0,64,0.00,,,0.27,Wunderground v.1.15,2013-02-04 02:35:00,
2013-02-03 21:40:00,37.1,26.0,29.83,NNW,332,7.0,7.0,64,0.00,,,0.27,Wunderground v.1.15,2013-02-04 02:40:00,
2013-02-03 21:46:00,36.9,26.2,29.83,North,360,6.0,12.0,65,0.00,,,0.27,Wunderground v.1.15,2013-02-04 02:46:00,
2013-02-03 21:51:00,36.7,26.0,29.83,NW,309,6.0,6.0,65,0.00,,,0.27,Wunderground v.1.15,2013-02-04 02:51:00,
2013-02-03 22:00:00,36.6,25.9,29.84,NW,322,8.0,8.0,65,0.00,,,0.27,Wunderground v.1.15,2013-02-04 03:00:00,
2013-02-03 22:06:00,36.4,26.1,29.84,WSW,251,7.0,12.0,66,0.00,,,0.27,Wunderground v.1.15,2013-02-04 03:06:00,
2013-02-03 22:11:00,36.2,25.9,29.84,WNW,299,6.0,6.0,66,0.00,,,0.27,Wunderground v.1.15,2013-02-04 03:11:00,
2013-02-03 22:16:00,36.0,25.7,29.84,WNW,291,6.0,8.0,66,0.00,,,0.27,Wunderground v.1.15,2013-02-04 03:16:00,
2013-02-03 22:25:00,35.6,25.7,29.84,NNW,338,5.0,5.0,67,0.00,,,0.27,Wunderground v.1.15,2013-02-04 03:25:00,
2013-02-03 22:30:00,35.2,25.7,29.84,West,264,4.0,4.0,68,0.00,,,0.27,Wunderground v.1.15,2013-02-04 03:30:00,
2013-02-03 22:35:00,34.9,25.4,29.84,NW,311,3.0,4.0,68,0.00,,,0.27,Wunderground v.1.15,2013-02-04 03:35:00,
2013-02-03 22:41:00,34.6,25.5,29.84,WNW,299,2.0,2.0,69,0.00,,,0.27,Wunderground v.1.15,2013-02-04 03:41:00,
2013-02-03 22:46:00,34.4,25.6,29.84,WSW,249,2.0,2.0,70,0.00,,,0.27,Wunderground v.1.15,2013-02-04 03:46:00,
2013-02-03 22:55:00,33.7,25.3,29.85,ENE,77,3.0,4.0,71,0.00,,,0.27,Wunderground v.1.15,2013-02-04 03:55:00,
2013-02-03 23:01:00,33.9,25.5,29.85,South,185,2.0,2.0,71,0.00,,,0.27,Wunderground v.1.15,2013-02-04 04:01:00,
2013-02-03 23:06:00,33.8,25.4,29.85,WNW,297,3.0,3.0,71,0.00,,,0.27,Wunderground v.1.15,2013-02-04 04:06:00,
2013-02-03 23:11:00,33.4,25.3,29.85,SW,229,2.0,2.0,72,0.00,,,0.27,Wunderground v.1.15,2013-02-04 04:11:00,
2013-02-03 23:20:00,32.3,24.9,29.85,SSW,194,1.0,3.0,74,0.00,,,0.27,Wunderground v.1.15,2013-02-04 04:20:00,
2013-02-03 23:25:00,32.1,24.7,29.85,SW,220,1.0,1.0,74,0.00,,,0.27,Wunderground v.1.15,2013-02-04 04:25:00,
2013-02-03 23:31:00,31.5,24.8,29.85,SW,220,1.0,1.0,76,0.00,,,0.27,Wunderground v.1.15,2013-02-04 04:31:00,
2013-02-03 23:36:00,31.4,24.7,29.85,SSW,205,0.0,0.0,76,0.00,,,0.27,Wunderground v.1.15,2013-02-04 04:36:00,
2013-02-03 23:46:00,31.4,24.7,29.86,WSW,243,1.0,3.0,76,0.00,,,0.27,Wunderground v.1.15,2013-02-04 04:46:00,
2013-02-03 23:56:00,32.0,25.3,29.85,WSW,256,1.0,6.0,76,0.00,,,0.27,Wunderground v.1.15,2013-02-04 04:56:00,